FW8870 Weather Reports


Display with metric or nautical units.
time (UTC)temp
F
wind
direction
speed
MPH
gust
MPH
rain 1hr
in
rain 24hr
in
rain mn
in
humidity
%
barometer
mb
20260831140142 50 284 1.0 1.0 0.00 0.00 0.00 99 1016.7
20260831135639 50 78 1.0 2.0 0.00 0.00 0.00 99 1016.5
20260831135135 50 167 1.0 2.0 0.00 0.00 0.00 99 1016.6
20260831134631 50 345 0.0 0.0 0.00 0.00 0.00 99 1016.5
20260831134126 50 341 0.0 1.0 0.00 0.00 0.00 99 1016.6
20260831133625 50 307 0.0 0.0 0.00 0.00 0.00 99 1016.7
20260831133120 50 72 0.0 1.0 0.00 0.00 0.00 99 1016.9
20260831132616 50 54 2.0 2.0 0.00 0.00 0.00 99 1016.9
20260831132115 50 316 0.0 0.0 0.00 0.00 0.00 99 1016.8
20260831131610 50 334 0.0 0.0 0.00 0.00 0.00 99 1017.1
20260831131107 51 314 0.0 0.0 0.00 0.00 0.00 99 1017.0
20260831130601 51 345 0.0 0.0 0.00 0.00 0.00 99 1017.0
20260831130057 51 179 0.0 1.0 0.00 0.00 0.00 99 1017.0
20260831125555 51 27 2.0 3.0 0.00 0.00 0.00 99 1016.7
20260831125051 51 0 0.0 0.0 0.00 0.00 0.00 99 1016.8
20260831124547 51 313 0.0 0.0 0.00 0.00 0.00 99 1017.1
20260831124043 52 21 1.0 1.0 0.00 0.00 0.00 99 1016.7
20260831123542 51 38 3.0 3.0 0.00 0.00 0.00 99 1016.9
20260831123037 51 278 2.0 3.0 0.00 0.00 0.00 99 1017.2
20260831122536 51 331 0.0 0.0 0.00 0.00 0.00 99 1016.8
20260831122032 50 323 0.0 1.0 0.00 0.00 0.00 99 1017.0
20260831121527 51 342 0.0 0.0 0.00 0.00 0.00 99 1017.2
20260831121023 51 218 1.0 2.0 0.00 0.00 0.00 99 1016.9
20260831120522 51 345 0.0 1.0 0.00 0.00 0.00 99 1017.1
20260831120018 51 331 0.0 1.0 0.00 0.00 0.00 99 1017.3
20260831115514 51 352 0.0 0.0 0.00 0.00 0.00 99 1017.2
20260831115009 51 40 2.0 2.0 0.00 0.00 0.00 99 1017.1
20260831114508 51 356 0.0 0.0 0.00 0.00 0.00 99 1017.3
20260831114003 51 233 3.0 3.0 0.00 0.00 0.00 99 1017.3
20260831113502 51 180 1.0 2.0 0.00 0.00 0.00 99 1017.3
20260831112958 51 343 0.0 1.0 0.00 0.00 0.00 99 1017.6
20260831112458 51 336 0.0 1.0 0.00 0.00 0.00 99 1017.5
20260831111953 51 287 0.0 0.0 0.00 0.00 0.00 99 1017.4
20260831111448 51 330 0.0 0.0 0.00 0.00 0.00 99 1017.6
20260831110944 51 37 1.0 1.0 0.00 0.00 0.00 99 1017.5
20260831110439 51 8 1.0 1.0 0.00 0.00 0.00 99 1017.7
20260831105938 51 314 0.0 0.0 0.00 0.00 0.00 99 1017.7
20260831105434 51 7 0.0 0.0 0.00 0.00 0.00 99 1017.8
20260831104928 51 350 0.0 0.0 0.00 0.00 0.00 99 1017.8
20260831104425 51 353 0.0 0.0 0.00 0.00 0.00 99 1017.7
20260831103920 51 25 0.0 0.0 0.00 0.00 0.00 99 1017.6
20260831103421 52 39 1.0 1.0 0.00 0.00 0.00 99 1017.9
20260831102916 52 2 1.0 1.0 0.00 0.00 0.00 99 1017.8
20260831102416 52 341 0.0 0.0 0.00 0.00 0.00 99 1017.8
20260831101911 52 160 1.0 1.0 0.00 0.00 0.00 99 1017.9
20260831101406 52 4 0.0 0.0 0.00 0.00 0.00 99 1017.9
20260831100903 52 14 0.0 1.0 0.00 0.00 0.00 99 1018.0
20260831100358 52 2 0.0 0.0 0.00 0.00 0.00 99 1018.0
20260831095858 52 0 0.0 0.0 0.00 0.00 0.00 99 1017.9
20260831095357 52 26 1.0 2.0 0.00 0.00 0.00 99 1018.1
20260831094853 52 334 0.0 0.0 0.00 0.00 0.00 99 1017.9
20260831094348 52 89 1.0 2.0 0.00 0.00 0.00 99 1018.2
20260831093844 53 351 0.0 0.0 0.00 0.00 0.00 99 1018.3
20260831093339 53 353 0.0 0.0 0.00 0.00 0.00 99 1018.3
20260831092836 53 18 2.0 2.0 0.00 0.00 0.00 99 1018.5
20260831092331 53 12 1.0 1.0 0.00 0.00 0.00 99 1018.5
20260831091826 53 350 0.0 1.0 0.00 0.00 0.00 99 1018.6
20260831091322 53 40 1.0 3.0 0.00 0.00 0.00 99 1018.7
20260831090817 53 2 0.0 1.0 0.00 0.00 0.00 99 1018.8
20260831090313 53 349 0.0 0.0 0.00 0.00 0.00 99 1018.7
20260831085809 52 94 1.0 2.0 0.00 0.00 0.00 99 1018.8
20260831085306 53 337 0.0 0.0 0.00 0.00 0.00 99 1019.0
20260831084758 53 8 0.0 0.0 0.00 0.00 0.00 99 1018.8
20260831084254 53 348 0.0 0.0 0.00 0.00 0.00 99 1018.9
20260831083750 53 356 1.0 1.0 0.00 0.00 0.00 99 1019.1
20260831083245 52 346 0.0 0.0 0.00 0.00 0.00 99 1018.9
20260831082743 52 349 0.0 0.0 0.00 0.00 0.00 99 1019.0
20260831082239 53 6 0.0 0.0 0.00 0.00 0.00 99 1018.9
20260831081735 53 32 0.0 1.0 0.00 0.00 0.00 99 1018.9
20260831081230 52 346 0.0 0.0 0.00 0.00 0.00 99 1019.0
20260831080725 52 344 0.0 0.0 0.00 0.00 0.00 99 1019.2
20260831080220 52 342 0.0 0.0 0.00 0.00 0.00 99 1018.9
20260831075716 52 335 0.0 0.0 0.00 0.00 0.00 99 1019.0
20260831075211 52 349 0.0 0.0 0.00 0.00 0.00 99 1019.1
20260831074710 52 344 0.0 0.0 0.00 0.00 0.00 99 1018.9
20260831074205 52 337 0.0 0.0 0.00 0.00 0.00 99 1019.1
20260831073700 51 332 0.0 0.0 0.00 0.00 0.00 99 1019.4
20260831073159 52 332 0.0 0.0 0.00 0.00 0.00 99 1019.4
20260831072655 52 332 0.0 0.0 0.00 0.00 0.00 99 1019.2
20260831072151 52 332 0.0 0.0 0.00 0.00 0.00 99 1019.2
20260831071650 51 333 0.0 0.0 0.00 0.00 0.00 99 1019.2
20260831071145 51 332 0.0 0.0 0.00 0.00 0.00 99 1019.1
20260831070644 52 332 0.0 0.0 0.00 0.00 0.00 99 1019.2
20260831070133 52 333 0.0 0.0 0.00 0.00 0.00 99 1019.0
20260831065632 52 333 0.0 0.0 0.00 0.00 0.00 99 1019.3
20260831065131 53 318 0.0 0.0 0.00 0.00 0.00 99 1019.3
20260831064626 53 343 0.0 0.0 0.00 0.00 0.00 99 1019.3
20260831064122 52 343 0.0 0.0 0.00 0.00 0.00 99 1019.4
20260831063618 53 343 0.0 0.0 0.00 0.00 0.00 99 1019.5
20260831063113 53 343 0.0 0.0 0.00 0.00 0.00 99 1019.5
20260831062612 53 343 0.0 0.0 0.00 0.00 0.00 99 1019.4
20260831062107 53 343 0.0 0.0 0.00 0.00 0.00 99 1019.6
20260831061604 53 343 0.0 0.0 0.00 0.00 0.00 99 1019.6
20260831061101 53 343 0.0 0.0 0.00 0.00 0.00 99 1019.4
20260831060556 53 343 0.0 0.0 0.00 0.00 0.00 99 1019.5
20260831060051 53 343 0.0 0.0 0.00 0.00 0.00 99 1019.6
20260831055545 53 343 0.0 0.0 0.00 0.00 0.00 99 1019.8
20260831055041 53 343 0.0 0.0 0.00 0.00 0.00 99 1019.8
20260831054540 54 343 0.0 0.0 0.00 0.00 0.00 99 1019.7
20260831054040 54 343 0.0 0.0 0.00 0.00 0.00 99 1019.6
20260831053538 54 343 0.0 0.0 0.00 0.00 0.00 99 1019.9
20260831053039 54 343 0.0 0.0 0.00 0.00 0.00 98 1019.6
20260831052537 55 343 0.0 0.0 0.00 0.00 0.00 98 1019.7
20260831052037 55 343 0.0 0.0 0.00 0.00 0.00 97 1019.8
20260831051535 55 343 0.0 0.0 0.00 0.00 0.00 97 1020.0
20260831051030 55 343 0.0 0.0 0.00 0.00 0.00 96 1019.8
20260831050529 56 343 0.0 0.0 0.00 0.00 0.00 97 1020.1
20260831050027 56 343 0.0 0.0 0.00 0.00 0.00 96 1019.9
20260831045522 56 343 0.0 0.0 0.00 0.00 0.00 96 1020.1
20260831045017 56 343 0.0 0.0 0.00 0.00 0.00 96 1020.0
20260831044513 56 343 0.0 0.0 0.00 0.00 0.00 95 1020.1
20260831044008 56 343 0.0 0.0 0.00 0.00 0.00 95 1020.1
20260831043507 57 343 0.0 0.0 0.00 0.00 0.00 95 1020.0
20260831043003 57 344 0.0 0.0 0.00 0.00 0.00 95 1020.1
20260831042502 57 343 0.0 0.0 0.00 0.00 0.00 95 1020.3
20260831041957 57 343 0.0 0.0 0.00 0.00 0.00 94 1020.3
20260831041452 57 343 0.0 0.0 0.00 0.00 0.00 94 1020.4
20260831040951 57 343 0.0 0.0 0.00 0.00 0.00 93 1020.2
20260831040446 58 343 0.0 0.0 0.00 0.00 0.00 92 1020.5
20260831035943 58 344 0.0 0.0 0.00 0.00 0.00 92 1020.2
20260831035438 58 344 0.0 0.0 0.00 0.00 0.00 92 1020.1
20260831034933 58 344 0.0 0.0 0.00 0.00 0.00 90 1019.9
20260831034428 59 344 0.0 0.0 0.00 0.00 0.00 90 1019.9
20260831033923 59 344 0.0 0.0 0.00 0.00 0.00 90 1019.9
20260831033418 60 344 0.0 0.0 0.00 0.00 0.00 89 1020.0
20260831032914 60 343 0.0 0.0 0.00 0.00 0.00 88 1020.2
20260831032413 60 348 0.0 0.0 0.00 0.00 0.00 85 1020.1
20260831031908 61 341 0.0 0.0 0.00 0.00 0.00 89 1020.1
20260831031403 61 341 0.0 0.0 0.00 0.00 0.00 88 1020.0
20260831030857 61 341 0.0 0.0 0.00 0.00 0.00 87 1020.1
20260831030356 61 341 0.0 0.0 0.00 0.00 0.00 88 1020.0
20260831025855 62 339 0.0 0.0 0.00 0.00 0.00 88 1019.9
20260831025355 62 339 0.0 0.0 0.00 0.00 0.00 86 1019.9
20260831024850 62 338 0.0 0.0 0.00 0.00 0.00 86 1019.9
20260831024350 62 339 0.0 0.0 0.00 0.00 0.00 86 1020.2
20260831023849 62 339 0.0 0.0 0.00 0.00 0.00 86 1020.1
20260831023347 63 338 0.0 0.0 0.00 0.00 0.00 84 1019.9
20260831022843 63 339 0.0 0.0 0.00 0.00 0.00 84 1020.0
20260831022342 63 338 0.0 0.0 0.00 0.00 0.00 84 1019.9
20260831021836 63 338 0.0 0.0 0.00 0.00 0.00 81 1020.1
20260831021331 63 338 0.0 0.0 0.00 0.00 0.00 81 1019.8
20260831020827 63 349 0.0 0.0 0.00 0.00 0.00 78 1019.9
20260831020326 64 343 0.0 0.0 0.00 0.00 0.00 80 1019.7
20260831015822 64 338 0.0 0.0 0.00 0.00 0.00 79 1019.9
20260831015318 64 337 0.0 0.0 0.00 0.00 0.00 77 1020.1
20260831014817 65 341 1.0 1.0 0.00 0.00 0.00 76 1020.1
20260831014312 65 328 0.0 0.0 0.00 0.00 0.00 74 1019.8
20260831013808 65 328 0.0 0.0 0.00 0.00 0.00 76 1020.1
20260831013308 64 341 0.0 0.0 0.00 0.00 0.00 75 1020.1
20260831012803 65 329 0.0 0.0 0.00 0.00 0.00 77 1020.1
20260831012259 64 334 0.0 0.0 0.00 0.00 0.00 79 1020.0
20260831011757 64 324 0.0 0.0 0.00 0.00 0.00 78 1020.2
20260831011253 65 334 0.0 0.0 0.00 0.00 0.00 76 1020.1
20260831010748 65 326 0.0 1.0 0.00 0.00 0.00 75 1020.3
20260831010243 66 349 0.0 0.0 0.00 0.00 0.00 73 1020.1
20260831005739 66 319 0.0 0.0 0.00 0.00 0.00 72 1020.1
20260831005234 66 326 0.0 0.0 0.00 0.00 0.00 76 1020.3
20260831004729 66 335 2.0 3.0 0.00 0.00 0.00 71 1020.2
20260831004225 67 327 0.0 0.0 0.00 0.00 0.00 73 1020.2
20260831003720 67 344 0.0 0.0 0.00 0.00 0.00 68 1020.5
20260831003217 67 324 0.0 0.0 0.00 0.00 0.00 70 1020.4
20260831002715 67 337 3.0 3.0 0.00 0.00 0.00 67 1020.5
20260831002210 67 347 0.0 1.0 0.00 0.00 0.00 70 1020.6
20260831001706 67 329 0.0 0.0 0.00 0.00 0.00 74 1020.5
20260831001201 67 331 0.0 0.0 0.00 0.00 0.00 75 1020.4
20260831000657 66 304 2.0 2.0 0.00 0.00 0.00 72 1020.7
20260831000152 67 349 0.0 0.0 0.00 0.00 0.00 70 1020.4
20260830235651 67 351 0.0 0.0 0.00 0.00 0.00 71 1020.4
20260830235146 67 341 1.0 1.0 0.00 0.00 0.00 72 1020.5
20260830234641 67 10 3.0 3.0 0.00 0.00 0.00 70 1020.6
20260830234137 67 336 0.0 0.0 0.00 0.00 0.00 70 1020.6
20260830233632 68 345 0.0 1.0 0.00 0.00 0.00 70 1020.6
20260830233127 67 334 0.0 0.0 0.00 0.00 0.00 70 1020.6
20260830232624 67 323 0.0 0.0 0.00 0.00 0.00 72 1020.7
20260830232119 67 323 0.0 0.0 0.00 0.00 0.00 69 1020.7
20260830231615 67 331 0.0 0.0 0.00 0.00 0.00 69 1021.0
20260830231114 67 324 0.0 1.0 0.00 0.00 0.00 70 1020.8
20260830230610 67 310 1.0 1.0 0.00 0.00 0.00 69 1020.7
20260830230104 67 304 0.0 0.0 0.00 0.00 0.00 68 1020.7
20260830225559 68 15 2.0 3.0 0.00 0.00 0.00 67 1020.9
20260830225059 68 153 1.0 1.0 0.00 0.00 0.00 65 1020.9
20260830224558 68 324 0.0 0.0 0.00 0.00 0.00 67 1020.8
20260830224054 68 295 1.0 1.0 0.00 0.00 0.00 65 1021.0
20260830223551 68 315 0.0 0.0 0.00 0.00 0.00 67 1020.8
20260830223045 67 198 2.0 2.0 0.00 0.00 0.00 67 1020.8
20260830222540 68 307 0.0 0.0 0.00 0.00 0.00 69 1020.8
20260830222036 68 310 0.0 0.0 0.00 0.00 0.00 64 1020.8
20260830221532 68 303 0.0 1.0 0.00 0.00 0.00 67 1021.0
20260830221028 67 331 0.0 0.0 0.00 0.00 0.00 69 1021.1
20260830220527 67 330 0.0 0.0 0.00 0.00 0.00 69 1021.1
20260830220026 67 276 1.0 2.0 0.00 0.00 0.00 70 1021.1
20260830215520 67 343 0.0 1.0 0.00 0.00 0.00 68 1021.1
20260830215015 67 341 0.0 0.0 0.00 0.00 0.00 68 1021.1
20260830214510 66 270 0.0 0.0 0.00 0.00 0.00 70 1021.0
20260830214004 66 338 0.0 1.0 0.00 0.00 0.00 69 1021.4
20260830213459 66 306 1.0 1.0 0.00 0.00 0.00 70 1021.2
20260830212954 66 9 2.0 2.0 0.00 0.00 0.00 69 1021.2
20260830212450 66 342 0.0 0.0 0.00 0.00 0.00 71 1021.3
20260830211949 66 332 0.0 0.0 0.00 0.00 0.00 74 1021.3
20260830211444 66 3 0.0 0.0 0.00 0.00 0.00 68 1021.4
20260830210940 66 339 2.0 2.0 0.00 0.00 0.00 68 1021.4
20260830210439 67 352 1.0 2.0 0.00 0.00 0.00 69 1021.2
20260830205937 67 305 0.0 0.0 0.00 0.00 0.00 69 1021.3
20260830205436 66 326 0.0 1.0 0.00 0.00 0.00 74 1021.2
20260830204932 66 337 0.0 0.0 0.00 0.00 0.00 68 1021.3
20260830204431 67 317 0.0 0.0 0.00 0.00 0.00 70 1021.3
20260830203926 67 327 0.0 0.0 0.00 0.00 0.00 73 1021.2
20260830203422 67 330 1.0 1.0 0.00 0.00 0.00 70 1021.2
20260830202921 66 355 0.0 0.0 0.00 0.00 0.00 72 1021.3
20260830202417 66 257 0.0 1.0 0.00 0.00 0.00 70 1021.3
20260830201913 67 202 2.0 2.0 0.00 0.00 0.00 69 1021.4
20260830201412 66 339 0.0 0.0 0.00 0.00 0.00 73 1021.3
20260830200908 66 40 2.0 3.0 0.00 0.00 0.00 70 1021.3
20260830200407 66 167 0.0 2.0 0.00 0.00 0.00 73 1021.3
20260830195857 66 152 2.0 2.0 0.00 0.00 0.00 71 1021.5
20260830195356 66 159 3.0 3.0 0.00 0.00 0.00 70 1021.5
20260830194854 67 248 3.0 5.0 0.00 0.00 0.00 69 1021.4
20260830194348 66 91 5.0 5.0 0.00 0.00 0.00 70 1021.5
20260830193843 66 203 0.0 1.0 0.00 0.00 0.00 71 1021.3
20260830193337 66 99 2.0 3.0 0.00 0.00 0.00 71 1021.4
20260830192833 65 313 0.0 0.0 0.00 0.00 0.00 69 1021.6
20260830192333 65 355 0.0 1.0 0.00 0.00 0.00 73 1021.5
20260830191829 64 317 0.0 0.0 0.00 0.00 0.00 75 1021.6
20260830191328 64 338 0.0 0.0 0.00 0.00 0.00 75 1021.6
20260830190824 64 320 0.0 1.0 0.00 0.00 0.00 81 1021.8
20260830190324 64 316 0.0 0.0 0.00 0.00 0.00 75 1021.8
20260830185823 64 324 0.0 0.0 0.00 0.00 0.00 76 1021.6
20260830185318 63 299 0.0 0.0 0.00 0.00 0.00 74 1021.8
20260830184813 63 295 1.0 1.0 0.00 0.00 0.00 76 1021.8
20260830184312 63 356 0.0 1.0 0.00 0.00 0.00 74 1021.8
20260830183808 63 306 1.0 1.0 0.00 0.00 0.00 75 1021.7
20260830183307 63 212 2.0 2.0 0.00 0.00 0.00 75 1021.8
20260830182803 63 101 3.0 3.0 0.00 0.00 0.00 75 1021.8
20260830182258 63 207 3.0 3.0 0.00 0.00 0.00 75 1021.8
20260830181755 63 202 4.0 6.0 0.00 0.00 0.00 76 1021.6
20260830181250 63 143 3.0 5.0 0.00 0.00 0.00 75 1021.9
20260830180748 63 199 4.0 5.0 0.00 0.00 0.00 76 1022.0
20260830180243 63 218 4.0 6.0 0.00 0.00 0.00 74 1021.9
20260830175737 64 186 5.0 6.0 0.00 0.00 0.00 74 1021.8
20260830175233 63 185 1.0 3.0 0.00 0.00 0.00 75 1021.9
20260830174727 63 37 3.0 5.0 0.00 0.00 0.00 74 1021.7
20260830174223 63 196 6.0 7.0 0.00 0.00 0.00 74 1021.6
20260830173722 62 217 4.0 5.0 0.00 0.00 0.00 76 1021.6
20260830173218 62 192 5.0 6.0 0.00 0.00 0.00 75 1021.8
20260830172715 63 233 3.0 3.0 0.00 0.00 0.00 75 1021.9
20260830172211 63 168 2.0 3.0 0.00 0.00 0.00 75 1021.9
20260830171706 62 212 3.0 3.0 0.00 0.00 0.00 76 1021.8
20260830171201 62 143 2.0 5.0 0.00 0.00 0.00 78 1021.6
20260830170655 62 21 1.0 1.0 0.00 0.00 0.00 78 1022.0
20260830170154 61 218 1.0 2.0 0.00 0.00 0.00 79 1021.8
20260830165649 61 256 1.0 1.0 0.00 0.00 0.00 80 1021.9
20260830165145 61 323 1.0 1.0 0.00 0.00 0.00 81 1021.7
20260830164641 60 17 0.0 1.0 0.00 0.00 0.00 81 1021.9
20260830164137 60 322 1.0 1.0 0.00 0.00 0.00 81 1021.9
20260830163634 60 62 1.0 3.0 0.00 0.00 0.00 82 1021.9
20260830163133 60 356 1.0 2.0 0.00 0.00 0.00 81 1022.1
20260830162628 60 331 0.0 0.0 0.00 0.00 0.00 81 1021.9
20260830162124 60 347 1.0 1.0 0.00 0.00 0.00 80 1022.1
20260830161619 60 337 0.0 0.0 0.00 0.00 0.00 81 1022.2
20260830161113 59 346 0.0 0.0 0.00 0.00 0.00 81 1022.0
20260830160610 59 170 1.0 2.0 0.00 0.00 0.00 81 1021.9
20260830160104 60 89 3.0 3.0 0.00 0.00 0.00 81 1022.0
20260830155601 59 219 3.0 5.0 0.00 0.00 0.00 81 1022.1
20260830155056 59 84 3.0 3.0 0.00 0.00 0.00 82 1021.9
20260830154551 59 308 0.0 1.0 0.00 0.00 0.00 82 1021.9
20260830154047 59 14 0.0 1.0 0.00 0.00 0.00 82 1021.7
20260830153543 59 85 3.0 3.0 0.00 0.00 0.00 83 1022.0
20260830153043 59 273 0.0 1.0 0.00 0.00 0.00 82 1021.9
20260830152537 59 109 2.0 3.0 0.00 0.00 0.00 82 1021.9
20260830152037 59 255 2.0 2.0 0.00 0.00 0.00 82 1021.8
20260830151536 59 151 2.0 2.0 0.00 0.00 0.00 82 1021.7
20260830151031 59 71 3.0 5.0 0.00 0.00 0.00 81 1022.0
20260830150531 58 355 2.0 3.0 0.00 0.00 0.00 81 1021.9
20260830150026 58 30 5.0 6.0 0.00 0.00 0.00 81 1021.7
20260830145526 58 163 3.0 3.0 0.00 0.00 0.00 81 1021.8
20260830145021 58 322 0.0 1.0 0.00 0.00 0.00 80 1021.5
20260830144516 58 174 3.0 3.0 0.00 0.00 0.00 81 1021.6
20260830144012 58 240 1.0 1.0 0.00 0.00 0.00 81 1021.6
20260830143508 58 308 1.0 1.0 0.00 0.00 0.00 81 1021.7
20260830143006 58 117 3.0 3.0 0.00 0.00 0.00 82 1021.7
20260830142501 57 178 5.0 6.0 0.00 0.00 0.00 83 1021.8
20260830141955 57 121 1.0 2.0 0.00 0.00 0.00 83 1021.6
20260830141451 57 265 1.0 2.0 0.00 0.00 0.00 84 1021.6
20260830140946 57 142 1.0 2.0 0.00 0.00 0.00 87 1021.5